Location: Clatteringshaws Loch
(55.0508°N, 4.2860°W)
Time: 10:34:46
(UTC+01:00)

Amateur Radio Satellites - All Passes

Search period start: 28 June 2016 10:04
Search period end: 29 June 2016 10:04
Location: Clatteringshaws Loch, 55.0508°N, 4.2860°W

Satellite Date Start Highest point End Downlink Frequencies (MHz)
Time Altitude Azimuth
POLYITAN 1 28 Jun 10:04:58 10:07:26 15° 53° (NE) 10:09:55 437.675
DUCHIFAT 1 28 Jun 10:05:39 10:07:53 14° 52° (NE) 10:10:07 145.980
AUBIESAT-1 28 Jun 10:06:43 10:09:54 24° 101° (ESE) 10:13:15 437.475
CUTE-I 28 Jun 10:06:45 10:10:17 18° 312° (NW) 10:13:49 437.470
ZACube-1 28 Jun 10:12:40 10:16:52 36° 96° (E) 10:21:06 437.345
AAUSAT CUBESAT 2 28 Jun 10:17:53 10:22:06 85° 100° (E) 10:26:17 437.432
DOVE 4 28 Jun 10:19:19 10:22:19 19° 303° (WNW) 10:25:24 437.250
PRISM 28 Jun 10:23:12 10:25:07 13° 274° (W) 10:27:01 437.425
Oscar 11 28 Jun 10:23:58 10:28:13 46° 99° (E) 10:32:24 145.826/435.025
AO-7 28 Jun 10:28:16 10:32:26 15° 355° (N) 10:36:37 29.400- 29.500
RS-15 28 Jun 10:30:29 10:35:37 14° 89° (E) 10:40:49 29.354- 29.394
FUNcube-1 28 Jun 10:30:32 10:34:56 49° 99° (E) 10:39:22 145.935
AIST 2 28 Jun 10:30:45 10:33:59 21° 3° (N) 10:37:14 435.215
UWE-3 28 Jun 10:32:02 10:36:36 73° 104° (ESE) 10:41:14 435.000/436.395/437.385
DELFI C3 28 Jun 10:35:18 10:38:53 30° 95° (E) 10:42:25 145.870
ISS 28 Jun 10:36:06 10:38:35 20° 152° (SSE) 10:41:06 145.825
Cosmos 2491 28 Jun 10:36:45 10:44:22 32° 55° (NE) 10:51:55 435.465 / 435.565
O/OREOS (USA 219) 28 Jun 10:39:36 10:42:40 18° 32° (NNE) 10:45:45 437.305
PCSat 28 Jun 10:41:12 10:46:38 64° 42° (NE) 10:52:02 145.827
HO-68 28 Jun 10:41:39 10:48:44 61° 298° (WNW) 10:55:47 435.675
M-CUBED/EXP-1 PRIME 28 Jun 10:45:11 10:48:53 64° 110° (ESE) 10:52:53 437.505
CANX-2 28 Jun 10:47:36 10:51:12 26° 299° (WNW) 10:54:47 2200.000
COMPASS 1 28 Jun 10:51:34 10:55:33 41° 294° (WNW) 10:59:30 437.405
TIGRISAT 28 Jun 10:52:25 10:56:43 65° 258° (WSW) 11:01:09 435.000
BEESAT 3 28 Jun 10:56:09 11:00:08 79° 42° (NE) 11:04:07 437.485
UNISAT 6 28 Jun 10:57:24 11:01:41 56° 259° (W) 11:06:05 437.425
BUGSAT 1 28 Jun 11:03:12 11:06:14 21° 58° (ENE) 11:09:17 437.445
NOAA 18 28 Jun 11:03:29 11:04:01 10° 326° (NW) 11:04:33 137.9125
JAS-2 28 Jun 11:04:43 11:10:40 28° 52° (NE) 11:16:08 435.910
CUTE 1.7 + AOD 2 28 Jun 11:08:00 11:11:13 21° 303° (WNW) 11:14:25 437.475
SEEDS 28 Jun 11:13:00 11:16:23 23° 301° (WNW) 11:19:45 437.485
NANOSAT C BR1 28 Jun 11:17:59 11:22:03 52° 69° (ENE) 11:26:10 145.865
CINEMA 3 28 Jun 11:19:37 11:22:33 18° 305° (NW) 11:25:33 145.822/145.860
CUBEBUG 2 28 Jun 11:20:02 11:24:11 36° 296° (WNW) 11:28:26 437.445
QB50P1 28 Jun 11:20:34 11:24:41 58° 70° (ENE) 11:28:51 145.935-145.965
POPSAT HIP 1 28 Jun 11:23:43 11:27:50 61° 70° (ENE) 11:32:01 437.405
HUMSAT D 28 Jun 11:31:15 11:35:31 53° 100° (E) 11:39:45 437.325/437.525
CUSAT 1 28 Jun 11:32:03 11:34:44 12° 315° (NW) 11:37:12 437.405
BEESAT 2 28 Jun 11:32:47 11:36:49 86° 224° (SW) 11:40:49 435.950
QB50P2 28 Jun 11:35:48 11:40:00 82° 75° (ENE) 11:44:16 145.880/145.840
ANTELSAT 28 Jun 11:38:10 11:41:50 26° 268° (W) 11:45:36 437.575/2403.000
POLYITAN 1 28 Jun 11:38:26 11:42:38 84° 73° (ENE) 11:46:53 437.675
DUCHIFAT 1 28 Jun 11:38:45 11:42:55 76° 72° (ENE) 11:47:08 145.980
AUBIESAT-1 28 Jun 11:40:57 11:44:34 46° 298° (WNW) 11:48:26 437.475
DANDE 28 Jun 11:45:18 11:51:10 21° 311° (NW) 11:56:27 436.750
ZACube-1 28 Jun 11:49:01 11:53:11 38° 295° (WNW) 11:57:23 437.345
AAUSAT CUBESAT 2 28 Jun 11:54:22 11:57:04 17° 305° (NW) 11:59:45 437.432
Oscar 19 28 Jun 11:59:02 12:02:50 21° 52° (NE) 12:06:39 437.125/150
Oscar 11 28 Jun 12:00:25 12:04:12 29° 298° (WNW) 12:07:57 145.826/435.025
FUNcube-1 28 Jun 12:07:07 12:11:01 29° 299° (WNW) 12:14:56 145.935
CUBEBUG 1 28 Jun 12:08:22 12:11:36 20° 90° (E) 12:14:50 437.445
UWE-3 28 Jun 12:09:14 12:12:39 22° 303° (WNW) 12:16:08 435.000/436.395/437.385
AIST 2 28 Jun 12:09:41 12:13:31 34° 26° (NNE) 12:17:21 435.215
DELFI C3 28 Jun 12:10:06 12:13:49 37° 294° (WNW) 12:17:31 145.870
ISS 28 Jun 12:11:26 12:14:33 42° 172° (S) 12:17:41 145.825
Gurwin Techsat 1B 28 Jun 12:12:25 12:15:33 16° 46° (NE) 12:18:42 435.225
VELOX 1 28 Jun 12:14:50 12:18:14 21° 91° (E) 12:21:36 145.980
AO-7 28 Jun 12:16:55 12:22:11 19° 22° (NNE) 12:27:29 29.400- 29.500
O/OREOS (USA 219) 28 Jun 12:18:30 12:22:58 64° 54° (NE) 12:27:26 437.305
M-CUBED/EXP-1 PRIME 28 Jun 12:20:27 12:23:12 20° 307° (NW) 12:26:07 437.505
PCSat 28 Jun 12:24:57 12:29:48 34° 244° (WSW) 12:34:37 145.827
YUBILEINY 28 Jun 12:28:49 12:36:23 35° 81° (E) 12:44:00 435.215
HO-68 28 Jun 12:30:06 12:35:13 22° 321° (NW) 12:40:21 435.675
Cosmos 2491 28 Jun 12:33:38 12:42:24 86° 262° (W) 12:51:08 435.465 / 435.565
TIGRISAT 28 Jun 12:33:49 12:34:23 10° 278° (W) 12:34:56 435.000
RS-15 28 Jun 12:33:51 12:44:41 50° 115° (ESE) 12:56:04 29.354- 29.394
BEESAT 3 28 Jun 12:34:30 12:37:24 20° 242° (WSW) 12:40:17 437.485
BUGSAT 1 28 Jun 12:37:20 12:41:18 60° 258° (WSW) 12:45:18 437.445
JAS-2 28 Jun 12:47:36 12:55:09 89° 63° (ENE) 13:01:54 435.910
ESTCUBE 1 28 Jun 12:48:41 12:53:10 61° 102° (ESE) 12:57:37 437.505/2401.250
NANOSAT C BR1 28 Jun 12:54:44 12:58:05 23° 268° (W) 13:01:28 145.865
AISAT 28 Jun 12:55:08 12:59:24 48° 100° (E) 13:03:39 437.250
QB50P1 28 Jun 12:57:37 13:00:50 21° 269° (W) 13:04:04 145.935-145.965
50 SAT 28 Jun 12:58:18 13:01:59 54° 101° (E) 13:05:36 437.505
UKube-1 28 Jun 12:58:20 13:02:16 33° 97° (E) 13:06:10 .
POPSAT HIP 1 28 Jun 13:00:54 13:04:02 20° 270° (W) 13:07:11 437.405
SPROUT 28 Jun 13:00:58 13:04:40 27° 94° (E) 13:08:22 437.525
HUMSAT D 28 Jun 13:07:20 13:10:54 26° 300° (WNW) 13:14:28 437.325/437.525
BEESAT 2 28 Jun 13:11:37 13:14:06 16° 245° (WSW) 13:16:35 435.950
QB50P2 28 Jun 13:13:56 13:16:25 15° 273° (W) 13:18:55 145.880/145.840
DUCHIFAT 1 28 Jun 13:16:32 13:19:10 16° 272° (W) 13:21:48 145.980
POLYITAN 1 28 Jun 13:16:38 13:19:03 15° 273° (W) 13:21:30 437.675
DX 1 28 Jun 13:17:04 13:21:23 57° 102° (ESE) 13:25:39 434.975-435.025
Oscar 19 28 Jun 13:36:25 13:41:36 89° 254° (WSW) 13:46:46 437.125/150
CUBEBUG 1 28 Jun 13:44:01 13:48:19 63° 290° (WNW) 13:52:35 437.445
ISS 28 Jun 13:47:36 13:50:42 39° 191° (SSW) 13:53:48 145.825
AIST 2 28 Jun 13:48:10 13:52:19 67° 228° (SW) 13:56:27 435.215
Gurwin Techsat 1B 28 Jun 13:49:20 13:54:35 61° 68° (ENE) 13:59:51 435.225
VELOX 1 28 Jun 13:50:45 13:55:06 61° 291° (WNW) 13:59:26 145.980
Cosmos 2504 28 Jun 13:55:23 14:02:48 38° 82° (E) 14:10:36 435.465 / 435.565
ITAMSAT 1 28 Jun 13:58:24 14:03:06 35° 59° (ENE) 14:07:49 435.822/435.867
O/OREOS (USA 219) 28 Jun 13:58:30 14:02:00 23° 256° (WSW) 14:05:29 437.305
AO-7 28 Jun 14:05:20 14:12:53 40° 48° (NE) 14:20:29 29.400- 29.500
HO-68 28 Jun 14:19:27 14:20:25 10° 347° (NNW) 14:21:23 435.675
TISAT 1 28 Jun 14:22:54 14:26:58 46° 99° (E) 14:31:03 437.305
YUBILEINY 28 Jun 14:23:49 14:32:33 74° 285° (WNW) 14:41:24 435.215
ESTCUBE 1 28 Jun 14:26:02 14:29:41 24° 302° (WNW) 14:33:18 437.505/2401.250
Cosmos 2491 28 Jun 14:31:23 14:38:06 26° 285° (WNW) 14:44:49 435.465 / 435.565
AISAT 28 Jun 14:31:57 14:35:43 28° 300° (WNW) 14:39:29 437.250
50 SAT 28 Jun 14:32:36 14:35:22 20° 301° (WNW) 14:38:07 437.505
UKube-1 28 Jun 14:34:22 14:38:23 38° 296° (WNW) 14:42:23 .
JAS-2 28 Jun 14:34:54 14:40:53 26° 272° (W) 14:46:27 435.910
SWISSCUBE 28 Jun 14:36:42 14:40:12 19° 89° (E) 14:43:39 437.505
SPROUT 28 Jun 14:36:43 14:40:49 45° 293° (WNW) 14:44:54 437.525
RS-15 28 Jun 14:44:56 14:56:41 77° 323° (NW) 15:09:03 29.354- 29.394
DX 1 28 Jun 14:53:46 14:57:17 24° 302° (WNW) 15:00:47 434.975-435.025
HORYU 2 28 Jun 14:54:59 14:56:01 11° 45° (NE) 14:57:01 437.375
BEESAT 28 Jun 15:01:40 15:05:48 28° 93° (E) 15:09:54 436.000
ITUPSAT 1 28 Jun 15:02:24 15:06:33 28° 93° (E) 15:10:40 437.325
Oscar 19 28 Jun 15:18:16 15:21:41 18° 273° (W) 15:25:05 437.125/150
CUBEBUG 1 28 Jun 15:21:56 15:23:49 13° 311° (NW) 15:25:42 437.445
ISS 28 Jun 15:24:21 15:26:36 17° 211° (SSW) 15:28:51 145.825
AIST 2 28 Jun 15:28:13 15:30:04 13° 248° (WSW) 15:31:54 435.215
VELOX 1 28 Jun 15:28:49 15:30:46 13° 311° (NW) 15:32:42 145.980
Gurwin Techsat 1B 28 Jun 15:30:25 15:34:56 28° 268° (W) 15:39:30 435.225
ITAMSAT 1 28 Jun 15:37:22 15:42:27 51° 260° (W) 15:47:34 435.822/435.867
MOZHAYETS 4 28 Jun 15:45:59 15:47:38 12° 82° (E) 15:49:17
Cosmos 2504 28 Jun 15:47:23 15:55:40 70° 287° (WNW) 16:04:32 435.465 / 435.565
NOAA 18 28 Jun 15:55:54 15:58:18 13° 40° (NE) 16:00:44 137.9125
AO-7 28 Jun 15:56:52 16:05:13 76° 251° (WSW) 16:13:39 29.400- 29.500
KKS-1 28 Jun 15:57:58 16:00:27 15° 87° (E) 16:02:56 437.445
TISAT 1 28 Jun 15:58:55 16:02:28 27° 299° (WNW) 16:06:02 437.305
HO-68 28 Jun 16:04:07 16:05:04 10° 13° (NNE) 16:06:00 435.675
Cubesat XI-IV 28 Jun 16:04:47 16:06:57 12° 41° (NE) 16:09:06 437.490
SO-50 28 Jun 16:07:44 16:11:06 19° 114° (ESE) 16:14:26 436.795
SWISSCUBE 28 Jun 16:13:44 16:18:34 77° 289° (WNW) 16:23:21 437.505
YUBILEINY 28 Jun 16:24:12 16:31:09 25° 312° (NW) 16:38:10 435.215
HORYU 2 28 Jun 16:27:19 16:31:35 47° 66° (ENE) 16:35:53 437.375
STARS 28 Jun 16:30:58 16:33:41 16° 88° (E) 16:36:25 437.465
CUTE-I 28 Jun 16:37:17 16:40:56 19° 49° (NE) 16:44:36 437.470
GONETS M04 28 Jun 16:38:02 16:39:30 10° 60° (ENE) 16:40:57
BEESAT 28 Jun 16:39:11 16:43:53 53° 293° (WNW) 16:48:32 436.000
ITUPSAT 1 28 Jun 16:39:59 16:44:42 54° 293° (WNW) 16:49:22 437.325
BRITE-PL 28 Jun 16:40:16 16:43:26 18° 55° (NE) 16:46:29 437.365/2234.400
RS-15 28 Jun 16:59:19 17:11:02 54° 355° (N) 17:23:08 29.354- 29.394
NOAA 15 28 Jun 17:05:14 17:09:55 33° 59° (ENE) 17:14:37 137.62
DANDE 28 Jun 17:08:04 17:10:24 12° 35° (NE) 17:12:31 436.750
CUBESAT XI-V 28 Jun 17:12:46 17:14:11 11° 82° (E) 17:15:35 437.345
GOMX 1 28 Jun 17:15:56 17:18:44 17° 55° (NE) 17:21:29 467.674
MOZHAYETS 4 28 Jun 17:21:02 17:25:43 68° 103° (ESE) 17:30:20
NOAA 18 28 Jun 17:32:34 17:37:44 44° 61° (ENE) 17:42:58 137.9125
KKS-1 28 Jun 17:33:13 17:37:43 88° 109° (ESE) 17:42:11 437.445
Cubesat XI-IV 28 Jun 17:40:45 17:45:48 44° 63° (ENE) 17:50:54 437.490
Cosmos 2504 28 Jun 17:44:21 17:50:59 24° 314° (NW) 17:57:53 435.465 / 435.565
HO-68 28 Jun 17:45:09 17:50:15 22° 39° (NE) 17:55:22 435.675
SO-50 28 Jun 17:46:03 17:50:57 80° 135° (SE) 17:55:49 436.795
AIST 1 28 Jun 17:49:18 17:53:34 62° 97° (E) 17:57:50
LilacSat-2 28 Jun 17:49:40 17:53:10 36° 66° (ENE) 17:56:41 437.200
SWISSCUBE 28 Jun 17:52:35 17:55:40 17° 310° (NW) 17:58:43 437.505
AO-7 28 Jun 17:53:19 17:59:28 22° 274° (W) 18:05:41 29.400- 29.500
HORYU 2 28 Jun 18:04:31 18:08:21 28° 266° (W) 18:12:14 437.375
STARS 28 Jun 18:06:14 18:10:40 83° 286° (WNW) 18:15:04 437.465
CUTE-I 28 Jun 18:14:51 18:20:12 75° 70° (ENE) 18:25:36 437.470
BRITE-PL 28 Jun 18:16:32 18:21:28 89° 68° (ENE) 18:26:02 437.365/2234.400
DOVE 4 28 Jun 18:16:45 18:20:14 25° 61° (ENE) 18:23:41 437.250
BEESAT 28 Jun 18:18:36 18:20:43 13° 314° (NW) 18:22:50 436.000
ITUPSAT 1 28 Jun 18:19:24 18:21:35 13° 314° (NW) 18:23:44 437.325
GONETS M04 28 Jun 18:25:49 18:33:47 42° 85° (E) 18:41:45
YUBILEINY 28 Jun 18:30:11 18:32:20 11° 344° (NNW) 18:34:29 435.215
CUSAT 1 28 Jun 18:30:21 18:34:40 51° 68° (ENE) 18:37:58 437.405
Cosmos 2499 28 Jun 18:32:43 18:40:03 34° 80° (E) 18:47:41 435.465 / 435.565
CANX-2 28 Jun 18:37:00 18:39:41 16° 54° (NE) 18:42:23 2200.000
COMPASS 1 28 Jun 18:42:36 18:42:48 10° 48° (NE) 18:43:00 437.405
NOAA 15 28 Jun 18:44:21 18:49:32 54° 259° (W) 18:54:45 137.62
CUBESAT XI-V 28 Jun 18:47:52 18:52:31 66° 102° (ESE) 18:57:06 437.345
DANDE 28 Jun 18:49:44 18:55:21 43° 63° (ENE) 18:59:34 436.750
GOMX 1 28 Jun 18:51:52 18:56:22 88° 252° (WSW) 19:00:41 467.674
CUTE 1.7 + AOD 2 28 Jun 18:56:26 18:59:36 20° 57° (ENE) 19:02:47 437.475
MOZHAYETS 4 28 Jun 18:58:50 19:02:30 23° 303° (WNW) 19:06:09
SEEDS 28 Jun 19:01:15 19:04:06 18° 55° (NE) 19:06:58 437.485
KKS-1 28 Jun 19:10:44 19:13:44 18° 307° (NW) 19:16:44 437.445
NOAA 18 28 Jun 19:13:20 19:18:29 41° 262° (W) 19:23:43 137.9125
RS-15 28 Jun 19:13:37 19:25:47 66° 27° (NNE) 19:38:08 29.354- 29.394
CINEMA 3 28 Jun 19:13:59 19:17:33 29° 62° (ENE) 19:21:11 145.822/145.860
CUBEBUG 2 28 Jun 19:14:28 19:16:37 14° 51° (NE) 19:18:48 437.445
Cubesat XI-IV 28 Jun 19:20:58 19:25:59 40° 263° (W) 19:31:03 437.490
LilacSat-2 28 Jun 19:24:15 19:27:33 28° 266° (W) 19:30:54 437.200
AUBIESAT-1 28 Jun 19:27:02 19:28:59 15° 48° (NE) 19:30:58 437.475
SO-50 28 Jun 19:27:21 19:31:53 37° 337° (NNW) 19:36:21 436.795
AIST 1 28 Jun 19:28:17 19:31:35 21° 298° (WNW) 19:34:53
HO-68 28 Jun 19:29:44 19:36:45 61° 62° (ENE) 19:43:50 435.675
AAUSAT CUBESAT 2 28 Jun 19:40:26 19:43:44 23° 59° (ENE) 19:47:03 437.432
ZACube-1 28 Jun 19:41:57 19:43:56 13° 50° (NE) 19:45:56 437.345
STARS 28 Jun 19:43:40 19:46:25 16° 308° (NW) 19:49:09 437.465
Cosmos 2504 28 Jun 19:46:34 19:48:41 11° 345° (NNW) 19:50:50 435.465 / 435.565
Oscar 11 28 Jun 19:51:26 19:54:08 16° 53° (NE) 19:56:50 145.826/435.025
DOVE 4 28 Jun 19:53:40 19:57:48 48° 260° (W) 20:01:51 437.250
CUTE-I 28 Jun 19:56:38 20:00:50 23° 270° (W) 20:05:05 437.470
BRITE-PL 28 Jun 19:57:34 20:00:33 16° 273° (W) 20:03:26 437.365/2234.400
FUNcube-1 28 Jun 19:58:46 20:01:27 16° 53° (NE) 20:04:10 145.935
UWE-3 28 Jun 20:00:47 20:04:08 23° 58° (ENE) 20:07:33 435.000/436.395/437.385
STRAND 1 28 Jun 20:03:01 20:07:41 33° 95° (E) 20:12:19 437.568
M-CUBED/EXP-1 PRIME 28 Jun 20:04:54 20:07:53 34° 59° (ENE) 20:10:58 437.505
CANX-2 28 Jun 20:10:39 20:14:57 87° 75° (ENE) 20:19:19 2200.000
COMPASS 1 28 Jun 20:13:22 20:17:26 49° 68° (ENE) 20:21:32 437.405
CUSAT 1 28 Jun 20:13:24 20:16:04 17° 278° (W) 20:18:22 437.405
GONETS M04 28 Jun 20:21:45 20:30:21 62° 289° (WNW) 20:39:00
Cosmos 2499 28 Jun 20:23:57 20:32:28 78° 284° (WNW) 20:41:27 435.465 / 435.565
CUBESAT XI-V 28 Jun 20:25:52 20:29:32 24° 303° (WNW) 20:33:11 437.345
NOAA 15 28 Jun 20:29:47 20:30:33 10° 280° (W) 20:31:19 137.62
CUTE 1.7 + AOD 2 28 Jun 20:30:45 20:35:02 70° 257° (WSW) 20:39:22 437.475
YUBILEINY 28 Jun 20:31:45 20:34:46 12° 20° (NNE) 20:37:47 435.215
GOMX 1 28 Jun 20:32:49 20:35:07 14° 274° (W) 20:37:23 467.674
DANDE 28 Jun 20:32:59 20:38:01 33° 273° (W) 20:41:53 436.750
SEEDS 28 Jun 20:35:01 20:39:18 83° 255° (WSW) 20:43:37 437.485
CUBEBUG 2 28 Jun 20:48:18 20:52:29 71° 72° (ENE) 20:56:50 437.445
CINEMA 3 28 Jun 20:50:41 20:54:37 41° 262° (W) 20:58:38 145.822/145.860
HUMSAT D 28 Jun 20:55:38 20:58:17 16° 54° (NE) 21:00:58 437.325/437.525
AUBIESAT-1 28 Jun 20:59:45 21:03:03 77° 249° (WSW) 21:06:29 437.475
SO-50 28 Jun 21:09:25 21:13:30 26° 1° (N) 21:17:32 436.795
AAUSAT CUBESAT 2 28 Jun 21:14:47 21:18:56 58° 260° (W) 21:23:06 437.432
ZACube-1 28 Jun 21:15:13 21:19:25 65° 70° (ENE) 21:23:46 437.345
HO-68 28 Jun 21:18:13 21:24:51 40° 264° (W) 21:31:33 435.675
Oscar 11 28 Jun 21:25:18 21:29:39 85° 75° (ENE) 21:34:03 145.826/435.025
RS-15 28 Jun 21:26:37 21:38:42 67° 236° (SW) 21:50:48 29.354- 29.394
DELFI C3 28 Jun 21:27:41 21:31:34 46° 68° (ENE) 21:35:28 145.870
FUNcube-1 28 Jun 21:32:50 21:37:05 87° 77° (ENE) 21:41:28 145.935
UWE-3 28 Jun 21:36:05 21:40:16 60° 259° (W) 21:44:36 435.000/436.395/437.385
AO-85 28 Jun 21:38:21 21:42:05 19° 114° (ESE) 21:45:44 145.980
M-CUBED/EXP-1 PRIME 28 Jun 21:39:54 21:42:36 24° 259° (WSW) 21:45:22 437.505
STRAND 1 28 Jun 21:42:05 21:47:05 50° 295° (WNW) 21:52:02 437.568
Cosmos 2504 28 Jun 21:44:40 21:47:32 12° 19° (NNE) 21:50:25 435.465 / 435.565
VELOX 1 28 Jun 21:47:06 21:47:19 10° 45° (NE) 21:47:32 145.980
CANX-2 28 Jun 21:49:00 21:51:28 15° 274° (W) 21:53:55 2200.000
COMPASS 1 28 Jun 21:49:44 21:53:14 25° 268° (W) 21:56:46 437.405
PRISM 28 Jun 21:54:39 21:58:43 56° 102° (ESE) 22:02:44 437.425
CUTE 1.7 + AOD 2 28 Jun 22:10:32 22:11:43 11° 277° (W) 22:12:55 437.475
50 SAT 28 Jun 22:11:49 22:13:18 12° 53° (NE) 22:14:47 437.505
SEEDS 28 Jun 22:13:44 22:15:43 13° 275° (W) 22:17:43 437.485
ESTCUBE 1 28 Jun 22:19:28 22:23:03 24° 57° (ENE) 22:26:39 437.505/2401.250
Cosmos 2499 28 Jun 22:20:10 22:27:16 27° 310° (NW) 22:34:34 435.465 / 435.565
GONETS M04 28 Jun 22:23:03 22:29:22 21° 317° (NW) 22:35:42
AISAT 28 Jun 22:24:32 22:27:38 19° 55° (NE) 22:30:43 437.250
UKube-1 28 Jun 22:26:06 22:28:20 14° 50° (NE) 22:30:35 .
CUBEBUG 2 28 Jun 22:26:50 22:29:41 17° 273° (W) 22:32:35 437.445
YUBILEINY 28 Jun 22:28:10 22:35:37 29° 52° (NE) 22:43:03 435.215
HUMSAT D 28 Jun 22:29:08 22:33:20 90° 51° (NE) 22:37:39 437.325/437.525
SPROUT 28 Jun 22:29:15 22:30:10 11° 48° (NE) 22:31:04 437.525
TIGRISAT 28 Jun 22:37:10 22:40:20 18° 88° (E) 22:43:31 435.000
UNISAT 6 28 Jun 22:42:05 22:45:33 20° 89° (E) 22:49:02 437.425
DX 1 28 Jun 22:44:32 22:47:50 22° 56° (ENE) 22:51:09 434.975-435.025
SO-50 28 Jun 22:50:36 22:55:07 39° 25° (NNE) 22:59:30 436.795
ZACube-1 28 Jun 22:53:06 22:56:11 19° 271° (W) 22:59:21 437.345
DELFI C3 28 Jun 23:03:19 23:06:39 24° 268° (W) 23:09:59 145.870
Oscar 11 28 Jun 23:03:48 23:06:25 15° 274° (W) 23:09:02 145.826/435.025
CUBEBUG 1 28 Jun 23:10:45 23:14:49 40° 65° (ENE) 23:18:54 437.445
FUNcube-1 28 Jun 23:11:38 23:14:01 15° 275° (W) 23:16:26 145.935
AO-85 28 Jun 23:16:36 23:21:58 76° 134° (SE) 23:27:04 145.980
VELOX 1 28 Jun 23:18:35 23:22:47 45° 66° (ENE) 23:27:00 145.980
ANTELSAT 28 Jun 23:21:22 23:25:46 41° 98° (E) 23:30:12 437.575/2403.000
STRAND 1 28 Jun 23:22:51 23:25:11 13° 316° (NW) 23:27:32 437.568
PRISM 28 Jun 23:30:31 23:33:45 23° 302° (WNW) 23:36:57 437.425
Cosmos 2504 28 Jun 23:37:41 23:45:01 27° 50° (NE) 23:52:13 435.465 / 435.565
RS-15 28 Jun 23:40:08 23:48:52 24° 262° (W) 23:57:37 29.354- 29.394
50 SAT 28 Jun 23:42:37 23:46:20 75° 73° (ENE) 23:50:06 437.505
TISAT 1 28 Jun 23:47:43 23:50:16 16° 54° (NE) 23:52:49 437.305
Cosmos 2491 28 Jun 23:49:34 23:56:10 25° 75° (ENE) 00:02:46 435.465 / 435.565
ESTCUBE 1 28 Jun 23:55:00 23:59:31 65° 257° (WSW) 00:04:04 437.505/2401.250
AISAT 28 Jun 23:59:13 00:03:38 81° 256° (WSW) 00:08:03 437.250
UKube-1 28 Jun 23:59:23 00:03:41 70° 70° (ENE) 00:07:59 .
SPROUT 29 Jun 00:01:05 00:05:13 51° 68° (ENE) 00:09:22 437.525
HUMSAT D 29 Jun 00:07:24 00:09:39 14° 275° (W) 00:11:53 437.325/437.525
TIGRISAT 29 Jun 00:12:57 00:17:35 80° 287° (WNW) 00:22:16 435.000
BUGSAT 1 29 Jun 00:13:17 00:15:05 13° 86° (E) 00:16:54 437.445
SWISSCUBE 29 Jun 00:15:44 00:17:28 12° 44° (NE) 00:19:12 437.505
UNISAT 6 29 Jun 00:18:07 00:22:44 70° 289° (WNW) 00:27:23 437.425
DX 1 29 Jun 00:19:20 00:23:40 67° 257° (WSW) 00:28:01 434.975-435.025
Cosmos 2499 29 Jun 00:21:31 00:24:28 12° 341° (NNW) 00:27:24 435.465 / 435.565
YUBILEINY 29 Jun 00:24:59 00:33:53 85° 77° (ENE) 00:42:46 435.215
NANOSAT C BR1 29 Jun 00:30:48 00:34:44 36° 97° (E) 00:38:40 145.865
SO-50 29 Jun 00:31:12 00:35:56 70° 228° (SW) 00:40:30 436.795
QB50P1 29 Jun 00:33:46 00:37:47 39° 98° (E) 00:41:48 145.935-145.965
POPSAT HIP 1 29 Jun 00:36:58 00:41:02 41° 98° (E) 00:45:05 437.405
BEESAT 29 Jun 00:39:39 00:42:28 16° 49° (NE) 00:45:17 436.000
ITUPSAT 1 29 Jun 00:40:41 00:43:32 16° 49° (NE) 00:46:23 437.325
CUBEBUG 1 29 Jun 00:47:20 00:51:14 31° 265° (W) 00:55:08 437.445
QB50P2 29 Jun 00:49:15 00:53:27 57° 101° (ESE) 00:57:40 145.880/145.840
DUCHIFAT 1 29 Jun 00:51:16 00:55:26 51° 100° (E) 00:59:35 145.980
POLYITAN 1 29 Jun 00:51:52 00:56:06 58° 102° (ESE) 01:00:19 437.675
VELOX 1 29 Jun 00:55:36 00:59:26 29° 266° (W) 01:03:18 145.980
AO-85 29 Jun 00:57:55 01:02:53 39° 335° (NNW) 01:07:33 145.980
ANTELSAT 29 Jun 00:58:15 01:02:26 35° 297° (WNW) 01:06:41 437.575/2403.000
50 SAT 29 Jun 01:18:30 01:20:30 14° 272° (W) 01:22:32 437.505
TISAT 1 29 Jun 01:21:11 01:25:21 88° 76° (ENE) 01:29:33 437.305
Cosmos 2504 29 Jun 01:31:04 01:40:04 77° 76° (ENE) 01:48:47 435.465 / 435.565
PCSat 29 Jun 01:34:52 01:35:49 10° 101° (E) 01:36:46 145.827
JAS-2 29 Jun 01:35:19 01:40:52 40° 95° (E) 01:45:53 435.910
ESTCUBE 1 29 Jun 01:36:09 01:37:16 11° 277° (W) 01:38:23 437.505/2401.250
UKube-1 29 Jun 01:37:11 01:40:12 18° 270° (W) 01:43:15 .
SPROUT 29 Jun 01:37:59 01:41:27 24° 268° (W) 01:44:56 437.525
AISAT 29 Jun 01:38:48 01:40:51 13° 275° (W) 01:42:55 437.250
Oscar 19 29 Jun 01:41:21 01:45:02 19° 88° (E) 01:48:41 437.125/150
Cosmos 2491 29 Jun 01:43:02 01:51:48 83° 99° (E) 02:00:34 435.465 / 435.565
BUGSAT 1 29 Jun 01:47:01 01:51:08 86° 105° (ESE) 01:55:15 437.445
SWISSCUBE 29 Jun 01:49:37 01:54:14 48° 65° (ENE) 01:58:52 437.505
TIGRISAT 29 Jun 01:50:44 01:53:38 17° 307° (NW) 01:56:35 435.000
UNISAT 6 29 Jun 01:56:06 01:58:43 15° 309° (NW) 02:01:22 437.425
Gurwin Techsat 1B 29 Jun 01:59:30 02:02:18 14° 83° (E) 02:05:06 435.225
DX 1 29 Jun 01:59:48 02:00:43 11° 276° (W) 02:01:40 434.975-435.025
NANOSAT C BR1 29 Jun 02:06:38 02:10:29 34° 296° (WNW) 02:14:20 145.865
QB50P1 29 Jun 02:09:44 02:13:31 32° 297° (WNW) 02:17:18 145.935-145.965
POPSAT HIP 1 29 Jun 02:13:00 02:16:44 30° 298° (WNW) 02:20:29 437.405
SO-50 29 Jun 02:13:01 02:15:36 15° 248° (WSW) 02:18:09 436.795
BEESAT 29 Jun 02:14:44 02:19:29 69° 69° (ENE) 02:24:17 436.000
ITUPSAT 1 29 Jun 02:15:48 02:20:35 69° 70° (ENE) 02:25:25 437.325
Cosmos 2499 29 Jun 02:20:46 02:23:02 11° 15° (NNE) 02:25:17 435.465 / 435.565
YUBILEINY 29 Jun 02:22:31 02:29:47 30° 282° (WNW) 02:37:03 435.215
QB50P2 29 Jun 02:25:35 02:29:00 24° 301° (WNW) 02:32:25 145.880/145.840
DUCHIFAT 1 29 Jun 02:27:25 02:30:55 25° 300° (WNW) 02:34:24 145.980
POLYITAN 1 29 Jun 02:28:13 02:31:37 24° 301° (WNW) 02:35:01 437.675
GONETS M04 29 Jun 02:29:28 02:33:14 13° 26° (NNE) 02:37:00
BEESAT 3 29 Jun 02:33:06 02:34:26 11° 112° (ESE) 02:35:45 437.485
O/OREOS (USA 219) 29 Jun 02:39:32 02:42:26 17° 101° (E) 02:45:21 437.305
AO-85 29 Jun 02:40:11 02:44:30 26° 358° (N) 02:48:33 145.980
MOZHAYETS 4 29 Jun 02:53:41 02:57:31 26° 59° (ENE) 03:01:23
TISAT 1 29 Jun 02:59:27 03:01:39 14° 273° (W) 03:03:51 437.305
KKS-1 29 Jun 03:02:13 03:06:09 32° 61° (ENE) 03:10:05 437.445
BEESAT 2 29 Jun 03:10:07 03:12:25 15° 115° (ESE) 03:14:45 435.950
PCSat 29 Jun 03:12:46 03:17:59 50° 122° (ESE) 03:23:15 145.827
Oscar 19 29 Jun 03:19:52 03:25:02 83° 287° (WNW) 03:30:10 437.125/150
JAS-2 29 Jun 03:20:28 03:26:07 44° 299° (WNW) 03:31:13 435.910
BUGSAT 1 29 Jun 03:23:26 03:26:00 16° 305° (NW) 03:28:35 437.445
Cosmos 2504 29 Jun 03:25:04 03:32:47 35° 280° (W) 03:40:20 435.465 / 435.565
SWISSCUBE 29 Jun 03:27:59 03:32:14 31° 265° (W) 03:36:31 437.505
STARS 29 Jun 03:33:53 03:37:49 34° 63° (ENE) 03:41:47 437.465
Gurwin Techsat 1B 29 Jun 03:37:54 03:43:15 71° 103° (ESE) 03:48:35 435.225
Cosmos 2491 29 Jun 03:42:03 03:49:45 33° 304° (NW) 03:57:28 435.465 / 435.565
ITAMSAT 1 29 Jun 03:42:44 03:47:31 34° 95° (E) 03:52:17 435.822/435.867
AIST 1 29 Jun 03:48:52 03:52:47 34° 68° (ENE) 03:56:41
AO-7 29 Jun 03:50:43 03:57:23 25° 88° (E) 04:04:00 29.400- 29.500
BEESAT 29 Jun 03:54:04 03:57:45 22° 270° (W) 04:01:28 436.000
ITUPSAT 1 29 Jun 03:55:13 03:58:55 22° 270° (W) 04:02:39 437.325
BEESAT 3 29 Jun 04:07:28 04:11:22 65° 131° (SE) 04:15:18 437.485
Cosmos 2499 29 Jun 04:13:32 04:20:29 24° 46° (NE) 04:27:13 435.465 / 435.565
O/OREOS (USA 219) 29 Jun 04:16:46 04:21:16 83° 301° (WNW) 04:25:47 437.305
AO-85 29 Jun 04:21:36 04:26:11 36° 23° (NNE) 04:30:23 145.980
CUBESAT XI-V 29 Jun 04:21:42 04:25:36 26° 59° (ENE) 04:29:29 437.345
GONETS M04 29 Jun 04:25:55 04:33:41 34° 56° (ENE) 04:41:26
MOZHAYETS 4 29 Jun 04:29:50 04:34:24 58° 259° (W) 04:39:02
KKS-1 29 Jun 04:38:26 04:42:39 42° 262° (W) 04:46:52 437.445
BEESAT 2 29 Jun 04:45:41 04:49:40 82° 134° (SE) 04:53:41 435.950
PCSat 29 Jun 04:56:15 05:01:30 48° 324° (NW) 05:06:48 145.827
Oscar 19 29 Jun 05:00:06 05:03:41 20° 309° (NW) 05:07:17 437.125/150
JAS-2 29 Jun 05:07:01 05:09:42 13° 324° (NW) 05:12:16 435.910
STARS 29 Jun 05:10:05 05:14:10 38° 262° (W) 05:18:17 437.465
Gurwin Techsat 1B 29 Jun 05:18:25 05:22:50 27° 305° (NW) 05:27:13 435.225
ITAMSAT 1 29 Jun 05:22:08 05:27:12 49° 296° (WNW) 05:32:13 435.822/435.867
AIST 1 29 Jun 05:26:33 05:30:24 33° 269° (W) 05:34:13
AIST 2 29 Jun 05:30:41 05:33:58 23° 119° (ESE) 05:37:16 435.215
AO-7 29 Jun 05:42:58 05:51:26 83° 111° (ESE) 05:59:50 29.400- 29.500
BEESAT 3 29 Jun 05:45:43 05:49:20 33° 333° (NNW) 05:52:58 437.485
Cosmos 2491 29 Jun 05:46:38 05:50:17 13° 335° (NNW) 05:53:57 435.465 / 435.565
HORYU 2 29 Jun 05:47:23 05:51:31 34° 96° (E) 05:55:38 437.375
STRAND 1 29 Jun 05:48:36 05:52:26 22° 52° (NE) 05:56:17 437.568
O/OREOS (USA 219) 29 Jun 05:57:57 06:01:21 21° 324° (NW) 06:04:48 437.305
CUBESAT XI-V 29 Jun 05:58:03 06:02:42 59° 259° (W) 06:07:21 437.345
AO-85 29 Jun 06:02:18 06:07:06 78° 227° (SW) 06:11:27 145.980
CUSAT 1 29 Jun 06:02:49 06:03:34 10° 76° (ENE) 06:04:18 437.405
Cosmos 2499 29 Jun 06:06:38 06:15:33 69° 73° (ENE) 06:24:00 435.465 / 435.565
BRITE-PL 29 Jun 06:15:03 06:17:23 14° 86° (E) 06:19:42 437.365/2234.400
GONETS M04 29 Jun 06:22:48 06:31:32 81° 263° (W) 06:40:17
BEESAT 2 29 Jun 06:24:22 06:27:56 29° 337° (NNW) 06:31:29 435.950
CUTE-I 29 Jun 06:25:27 06:29:01 18° 86° (E) 06:32:35 437.470
DANDE 29 Jun 06:27:27 06:29:02 11° 71° (ENE) 06:30:36 436.750
PCSat 29 Jun 06:41:40 06:46:08 25° 348° (NNW) 06:50:36 145.827
GOMX 1 29 Jun 06:47:01 06:49:22 15° 87° (E) 06:51:46 467.674
LilacSat-2 29 Jun 06:50:15 06:53:17 21° 91° (E) 06:56:18 437.200
NOAA 15 29 Jun 06:52:05 06:56:51 34° 95° (E) 07:01:35 137.62
ITAMSAT 1 29 Jun 07:03:10 07:05:34 13° 317° (NW) 07:07:59 435.822/435.867
AIST 2 29 Jun 07:07:58 07:12:05 72° 319° (NW) 07:16:16 435.215
PRISM 29 Jun 07:17:03 07:19:55 18° 55° (NE) 07:22:48 437.425
HORYU 2 29 Jun 07:23:57 07:28:10 40° 296° (WNW) 07:32:21 437.375
BEESAT 3 29 Jun 07:25:02 07:28:02 20° 357° (N) 07:31:02 437.485
STRAND 1 29 Jun 07:25:52 07:31:02 89° 256° (WSW) 07:36:15 437.568
NOAA 18 29 Jun 07:27:22 07:32:46 49° 100° (E) 07:38:09 137.9125
Cubesat XI-IV 29 Jun 07:30:13 07:35:29 49° 100° (E) 07:40:42 437.490
AO-7 29 Jun 07:36:10 07:43:36 37° 314° (NW) 07:51:00 29.400- 29.500
CUSAT 1 29 Jun 07:37:36 07:44:32 44° 95° (E) 07:50:15 437.405
CUBESAT XI-V 29 Jun 07:40:39 07:41:06 10° 279° (W) 07:41:33 437.345
AO-85 29 Jun 07:44:00 07:46:45 16° 249° (WSW) 07:49:21 145.980
DOVE 4 29 Jun 07:44:43 07:48:16 25° 93° (E) 07:51:55 437.250
CANX-2 29 Jun 07:51:15 07:51:52 10° 82° (E) 07:52:28 2200.000
Cosmos 2491 29 Jun 07:52:07 07:52:41 10° 11° (N) 07:53:15 435.465 / 435.565
BRITE-PL 29 Jun 07:52:20 07:56:34 80° 285° (WNW) 08:00:42 437.365/2234.400
Cosmos 2499 29 Jun 08:00:17 08:08:14 39° 277° (W) 08:15:51 435.465 / 435.565
DANDE 29 Jun 08:02:41 08:10:17 41° 90° (E) 08:17:01 436.750
BEESAT 2 29 Jun 08:03:48 08:06:50 20° 0° (N) 08:09:52 435.950
CUTE-I 29 Jun 08:04:28 08:09:54 85° 106° (ESE) 08:15:18 437.470
CUTE 1.7 + AOD 2 29 Jun 08:09:48 08:12:02 14° 85° (E) 08:14:16 437.475
SEEDS 29 Jun 08:13:51 08:15:09 11° 83° (E) 08:16:26 437.485
GONETS M04 29 Jun 08:20:39 08:27:06 24° 286° (WNW) 08:33:35
GOMX 1 29 Jun 08:23:54 08:28:06 83° 286° (WNW) 08:32:23 467.674
LilacSat-2 29 Jun 08:24:05 08:27:51 50° 291° (WNW) 08:31:38 437.200
PCSat 29 Jun 08:26:39 08:31:11 26° 14° (NNE) 08:35:43 145.827
NOAA 15 29 Jun 08:31:46 08:36:52 50° 295° (WNW) 08:41:54 137.62
CUBEBUG 2 29 Jun 08:34:04 08:35:00 11° 82° (E) 08:35:56 437.445
HO-68 29 Jun 08:37:09 08:43:31 32° 92° (E) 08:49:51 435.675
CINEMA 3 29 Jun 08:37:21 08:41:13 28° 93° (E) 08:45:13 145.822/145.860
AIST 2 29 Jun 08:47:40 08:51:12 26° 342° (NNW) 08:54:46 435.215
PRISM 29 Jun 08:50:38 08:54:48 76° 257° (WSW) 08:58:58 437.425
AAUSAT CUBESAT 2 29 Jun 08:50:56 08:53:22 15° 87° (E) 08:55:46 437.432
ANTELSAT 29 Jun 08:52:40 08:55:20 16° 52° (NE) 08:58:03 437.575/2403.000
BEESAT 3 29 Jun 09:03:25 09:06:50 26° 20° (NNE) 09:10:14 437.485
STRAND 1 29 Jun 09:07:33 09:10:59 18° 274° (W) 09:14:25 437.568
Oscar 11 29 Jun 09:07:58 09:08:41 10° 82° (E) 09:09:24 145.826/435.025
NOAA 18 29 Jun 09:08:16 09:13:22 39° 301° (WNW) 09:18:28 137.9125
Cubesat XI-IV 29 Jun 09:10:33 09:15:28 37° 300° (WNW) 09:20:22 437.490
FUNcube-1 29 Jun 09:15:15 09:17:00 12° 83° (E) 09:18:45 145.935
UWE-3 29 Jun 09:18:46 09:22:02 19° 88° (E) 09:25:19 435.000/436.395/437.385
CUSAT 1 29 Jun 09:19:32 09:26:39 50° 291° (WNW) 09:32:24 437.405
DOVE 4 29 Jun 09:22:07 09:26:14 50° 292° (WNW) 09:30:31 437.250
O/OREOS (USA 219) 29 Jun 09:23:02 09:24:11 11° 16° (NNE) 09:25:19 437.305
CANX-2 29 Jun 09:24:17 09:28:36 66° 102° (ESE) 09:32:53 2200.000
COMPASS 1 29 Jun 09:24:32 09:28:24 34° 96° (E) 09:32:14 437.405
AO-7 29 Jun 09:29:06 09:34:10 18° 340° (NNW) 09:39:15 29.400- 29.500
BRITE-PL 29 Jun 09:32:12 09:34:26 14° 308° (NW) 09:36:38 437.365/2234.400
BEESAT 2 29 Jun 09:42:11 09:45:45 30° 24° (NNE) 09:49:19 435.950
TIGRISAT 29 Jun 09:42:28 09:46:24 34° 63° (ENE) 09:50:26 435.000
ISS 29 Jun 09:44:11 09:46:05 15° 146° (SSE) 09:47:58 145.825
CUTE 1.7 + AOD 2 29 Jun 09:44:14 09:48:34 88° 105° (ESE) 09:52:52 437.475
DANDE 29 Jun 09:44:41 09:52:59 65° 289° (WNW) 10:00:09 436.750
CUTE-I 29 Jun 09:45:13 09:49:25 23° 307° (NW) 09:53:34 437.470
SEEDS 29 Jun 09:47:23 09:51:40 73° 103° (ESE) 09:55:53 437.485
UNISAT 6 29 Jun 09:47:36 09:51:39 39° 64° (ENE) 09:55:49 437.425
Cosmos 2491 29 Jun 09:47:43 09:54:11 22° 44° (NE) 10:00:36 435.465 / 435.565
NANOSAT C BR1 29 Jun 09:56:48 09:58:41 13° 51° (NE) 10:00:34 145.865
QB50P1 29 Jun 09:59:43 10:01:54 14° 52° (NE) 10:04:06 145.935-145.965
